TimeEDT,TemperatureF,Dew PointF,Humidity,Sea Level PressureIn,VisibilityMPH,Wind Direction,Wind SpeedMPH,Gust SpeedMPH,PrecipitationIn,Events,Conditions,WindDirDegrees,DateUTC
12:53 AM,75.0,70.0,84,30.19,10.0,WSW,3.5,-,N/A,,Partly Cloudy,240,2012-10-04 04:53:00
1:53 AM,73.9,69.1,85,30.19,10.0,Calm,Calm,-,0.00,,Overcast,0,2012-10-04 05:53:00
2:53 AM,73.0,70.0,90,30.18,10.0,South,3.5,-,0.00,Rain,Light Rain,170,2012-10-04 06:53:00
3:53 AM,73.0,69.1,87,30.18,10.0,SW,4.6,-,0.03,,Overcast,230,2012-10-04 07:53:00
4:53 AM,72.0,69.1,91,30.18,10.0,Calm,Calm,-,N/A,,Overcast,0,2012-10-04 08:53:00
5:53 AM,72.0,68.0,87,30.19,10.0,Calm,Calm,-,N/A,,Mostly Cloudy,0,2012-10-04 09:53:00
6:53 AM,71.1,69.1,93,30.21,9.0,Calm,Calm,-,N/A,,Overcast,0,2012-10-04 10:53:00
7:53 AM,72.0,66.9,84,30.23,9.0,NW,5.8,-,0.01,Rain,Light Rain,310,2012-10-04 11:53:00
8:09 AM,71.6,68.0,88,30.22,2.5,Calm,Calm,-,0.04,Rain,Rain,0,2012-10-04 12:09:00
8:17 AM,71.6,68.0,88,30.22,4.0,East,4.6,-,0.05,Rain,Light Rain,80,2012-10-04 12:17:00
8:53 AM,71.1,68.0,90,30.22,10.0,North,6.9,-,0.05,,Mostly Cloudy,350,2012-10-04 12:53:00
9:14 AM,71.6,68.0,88,30.24,10.0,NW,5.8,-,N/A,,Mostly Cloudy,320,2012-10-04 13:14:00
9:38 AM,73.4,68.0,83,30.25,10.0,North,5.8,-,N/A,,Scattered Clouds,350,2012-10-04 13:38:00
9:53 AM,73.0,66.9,81,30.25,10.0,NNW,5.8,-,0.01,,Partly Cloudy,330,2012-10-04 13:53:00
10:53 AM,73.0,66.9,81,30.25,10.0,NNW,5.8,-,N/A,,Mostly Cloudy,340,2012-10-04 14:53:00
11:53 AM,73.0,66.9,81,30.25,10.0,NNW,4.6,-,N/A,,Mostly Cloudy,330,2012-10-04 15:53:00
12:53 PM,73.9,66.9,79,30.23,10.0,Calm,Calm,-,N/A,,Mostly Cloudy,0,2012-10-04 16:53:00
1:44 PM,75.2,66.2,73,30.22,10.0,Calm,Calm,-,N/A,,Mostly Cloudy,0,2012-10-04 17:44:00
1:53 PM,75.0,66.9,76,30.21,10.0,NW,4.6,-,N/A,,Mostly Cloudy,320,2012-10-04 17:53:00
2:53 PM,78.1,68.0,71,30.18,10.0,Calm,Calm,-,N/A,,Scattered Clouds,0,2012-10-04 18:53:00
3:01 PM,78.8,69.8,74,30.18,10.0,WSW,4.6,-,N/A,,Mostly Cloudy,250,2012-10-04 19:01:00
3:53 PM,78.1,68.0,71,30.17,10.0,WNW,5.8,-,N/A,,Mostly Cloudy,290,2012-10-04 19:53:00
4:22 PM,78.8,68.0,69,30.17,10.0,WNW,6.9,-,N/A,,Mostly Cloudy,290,2012-10-04 20:22:00
4:49 PM,78.8,68.0,69,30.17,10.0,WNW,4.6,-,N/A,,Mostly Cloudy,300,2012-10-04 20:49:00
4:53 PM,79.0,68.0,69,30.16,10.0,NW,5.8,-,N/A,,Mostly Cloudy,310,2012-10-04 20:53:00
5:19 PM,78.8,68.0,69,30.17,10.0,NW,5.8,-,N/A,,Scattered Clouds,320,2012-10-04 21:19:00
6:53 PM,75.0,68.0,79,30.16,10.0,Calm,Calm,-,N/A,,Scattered Clouds,0,2012-10-04 22:53:00
7:53 PM,72.0,69.1,91,30.17,10.0,Calm,Calm,-,N/A,,Clear,0,2012-10-04 23:53:00
8:53 PM,71.1,68.0,90,30.17,10.0,Calm,Calm,-,N/A,,Clear,0,2012-10-05 00:53:00
9:53 PM,69.1,66.9,93,30.19,10.0,Calm,Calm,-,N/A,,Clear,0,2012-10-05 01:53:00
10:53 PM,69.1,66.0,90,30.20,10.0,Calm,Calm,-,N/A,,Clear,0,2012-10-05 02:53:00
11:53 PM,68.0,66.0,93,30.20,7.0,Calm,Calm,-,N/A,,Clear,0,2012-10-05 03:53:00